Flag for Japan Weather past 2 weeks in Yokohama, Japan

Now
72 °F

Light rain. Fog.


Feels Like: 67 °F
Forecast: 70 / 77 °F
Wind: 7 mph from South

Location: Tokyo International Airport

Current Time: Jul 3, 2015 at 7:39:36 AM

Latest Report: Jul 3, 2015 at 7:00 AM


Visibility: 3 mi

Pressure: 29.71 "Hg

Humidity: 94%

Dew point: 70 °F

Location of YokohamaLocation

Historic Weather in Yokohama — Graph

°F

Yokohama temperature yesterday

Maximum temperature yesterday: 75 °F (at 1:00 PM)
Minimum temperature yesterday: 72 °F (at 12:00 AM)
Average temperature yesterday: 73 °F

Past Weeks' High & Low Weather Summary

 TemperatureHumidityPressure
High82 °F (Jun 24, 2:00 PM)100% (Jun 27, 1:00 AM)29.92 "Hg (Jun 27, 1:00 AM)
Low66 °F (Jun 18, 11:50 PM)48% (Jun 28, 1:30 PM)29.21 "Hg (Jul 1, 3:00 PM)
Average72 °F82%29.70 "Hg
* Reported Jun 18 5:00 AM — Jul 3 5:30 AM, Yokohama, Weather by CustomWeather, © 2015

Note: Actual official high and low records may vary slightly from our data, if they occured in-between our weather recording intervals... More about our weather records

Advertising

Yokohama weather history for previous 24 hours

 ConditionsComfort  
Time TempWeatherWind HumidityBarometerVisibility
5:30 AM
Fri, Jul 3
72 °FLight rain. Mostly cloudy.7 mph94%29.68 "Hg4 mi
5:00 AM72 °FRain. Fog.9 mph94%29.68 "Hg3 mi
4:30 AM72 °FRain. Fog.8 mph94%29.68 "Hg3 mi
4:00 AM72 °FRain. Partly cloudy.7 mph94%29.68 "Hg4 mi
3:30 AM72 °FLight rain. Mostly cloudy.10 mph94%29.68 "HgN/A
3:00 AM72 °FLight rain. Mostly cloudy.13 mph94%29.65 "HgN/A
2:30 AM72 °FLight rain. Mostly cloudy.13 mph94%29.65 "HgN/A
2:00 AM72 °FPartly cloudy.17 mph88%29.65 "HgN/A
1:30 AM73 °FPassing clouds.9 mph83%29.65 "HgN/A
1:00 AM72 °FPartly cloudy.7 mph88%29.65 "HgN/A
12:30 AM73 °FScattered showers. Mostly cloudy.9 mph83%29.68 "HgN/A
12:00 AM73 °FLight rain. Mostly cloudy.12 mph83%29.65 "HgN/A
11:30 PM
Thu, Jul 2
73 °FLight rain. Mostly cloudy.14 mph83%29.68 "HgN/A
11:00 PM73 °FPartly cloudy.12 mph83%29.65 "HgN/A
10:30 PM73 °FPartly cloudy.10 mph83%29.65 "HgN/A
10:00 PM72 °FPassing clouds.13 mph88%29.65 "HgN/A
9:30 PM73 °FPartly cloudy.10 mph89%29.65 "HgN/A
9:00 PM73 °FPassing clouds.9 mph83%29.65 "HgN/A
8:30 PM73 °FPartly cloudy.13 mph83%29.65 "HgN/A
8:00 PM73 °FPartly cloudy.15 mph89%29.62 "HgN/A
7:30 PM73 °FPartly cloudy.13 mph89%29.59 "HgN/A
7:00 PM75 °FPassing clouds.14 mph78%29.59 "HgN/A
6:30 PM75 °FPartly sunny.10 mph78%29.59 "HgN/A
6:00 PM75 °FBroken clouds.13 mph83%29.59 "HgN/A
5:30 PM75 °FBroken clouds.13 mph83%29.56 "HgN/A
5:00 PM75 °FBroken clouds.7 mph83%29.56 "HgN/A
4:30 PM75 °FBroken clouds.10 mph83%29.56 "HgN/A
4:00 PM75 °FBroken clouds.13 mph83%29.56 "HgN/A
3:30 PM75 °FBroken clouds.14 mph78%29.56 "HgN/A
3:00 PM75 °FPartly sunny.16 mph78%29.56 "HgN/A
2:30 PM75 °FPartly sunny.14 mph83%29.56 "HgN/A
2:00 PM75 °FBroken clouds.15 mph83%29.59 "HgN/A
1:30 PM75 °FPartly sunny.13 mph83%29.59 "HgN/A
1:00 PM75 °FBroken clouds.13 mph83%29.59 "HgN/A
12:30 PM73 °FPartly sunny.14 mph89%29.56 "HgN/A
12:00 PM73 °FBroken clouds.12 mph94%29.59 "Hg4 mi
11:30 AM72 °FSprinkles. Fog.9 mph94%29.59 "Hg3 mi
11:00 AM72 °FSprinkles. Fog.10 mph94%29.59 "Hg3 mi
10:30 AM72 °FMild.6 mph94%29.59 "Hg2 mi
10:00 AM72 °FSprinkles. Fog.9 mph94%29.59 "Hg2 mi
9:30 AM72 °FSprinkles. Fog.7 mph94%29.59 "Hg2 mi
9:00 AM73 °FSprinkles. Fog.5 mph89%29.59 "Hg2 mi
8:30 AM73 °FSprinkles. Fog.3 mph89%29.56 "Hg2 mi
8:00 AM73 °FFog.3 mph89%29.59 "Hg2 mi
7:30 AM73 °FFog.6 mph89%29.56 "Hg3 mi
7:00 AM72 °FFog.6 mph94%29.53 "Hg3 mi
Weather by CustomWeather, © 2015

See weather overviewHow to use our weather pages